| time (UTC) | temp F | wind direction | speed knots | gust knots | rain 1hr in | rain 24hr in | rain mn in | humidity % | barometer mb |
| 20260504001705 | 43 | 87 | 0.0 | 0.0 | 0.00 | 0.59 | 0.00 | 93 | 1014.1 |
| 20260504001205 | 43 | 87 | 0.0 | 0.9 | 0.00 | 0.59 | 0.00 | 93 | 1014.3 |
| 20260504000705 | 43 | 87 | 0.0 | 1.7 | 0.00 | 0.59 | 0.00 | 93 | 1014.3 |
| 20260504000205 | 43 | 87 | 0.0 | 1.7 | 0.00 | 0.59 | 0.59 | 93 | 1014.3 |
| 20260503235704 | 43 | 87 | 0.0 | 1.7 | 0.00 | 0.59 | 0.59 | 93 | 1014.4 |
| 20260503235205 | 43 | 87 | 0.9 | 1.7 | 0.00 | 0.59 | 0.59 | 93 | 1014.4 |
| 20260503234705 | 43 | 87 | 0.0 | 1.7 | 0.00 | 0.59 | 0.59 | 93 | 1014.6 |
| 20260503234204 | 43 | 87 | 0.9 | 1.7 | 0.00 | 0.59 | 0.59 | 93 | 1014.6 |
| 20260503233705 | 43 | 87 | 0.0 | 0.9 | 0.00 | 0.59 | 0.59 | 93 | 1014.4 |
| 20260503233205 | 43 | 87 | 0.0 | 1.7 | 0.00 | 0.59 | 0.59 | 92 | 1014.4 |
| 20260503232704 | 43 | 87 | 0.0 | 1.7 | 0.00 | 0.59 | 0.59 | 92 | 1014.7 |
| 20260503231704 | 43 | 87 | 0.0 | 0.9 | 0.00 | 0.59 | 0.59 | 92 | 1014.8 |
| 20260503231205 | 44 | 87 | 0.0 | 0.9 | 0.00 | 0.59 | 0.59 | 92 | 1014.8 |
| 20260503230204 | 44 | 87 | 0.0 | 1.7 | 0.00 | 0.59 | 0.59 | 92 | 1014.8 |
| 20260503225704 | 44 | 87 | 0.0 | 1.7 | 0.00 | 0.59 | 0.59 | 92 | 1014.6 |
| 20260503225205 | 44 | 87 | 1.7 | 1.7 | 0.00 | 0.59 | 0.59 | 92 | 1014.7 |
| 20260503224705 | 44 | 87 | 0.0 | 1.7 | 0.00 | 0.59 | 0.59 | 92 | 1014.7 |
| 20260503224205 | 45 | 87 | 0.9 | 1.7 | 0.00 | 0.59 | 0.59 | 92 | 1014.7 |
| 20260503223705 | 45 | 87 | 0.9 | 1.7 | 0.00 | 0.59 | 0.59 | 91 | 1014.7 |
| 20260503223204 | 45 | 87 | 0.0 | 0.0 | 0.01 | 0.59 | 0.59 | 91 | 1014.8 |
| 20260503215705 | 47 | 86 | 1.7 | 4.3 | 0.12 | 0.59 | 0.59 | 91 | 1014.9 |
| 20260503215205 | 47 | 92 | 3.5 | 3.5 | 0.12 | 0.59 | 0.59 | 91 | 1014.9 |
| 20260503214705 | 47 | 165 | 0.0 | 3.5 | 0.12 | 0.59 | 0.59 | 91 | 1014.9 |
| 20260503213705 | 47 | 165 | 1.7 | 4.3 | 0.12 | 0.59 | 0.59 | 91 | 1015.0 |
| 20260503213205 | 47 | 162 | 2.6 | 4.3 | 0.11 | 0.58 | 0.58 | 90 | 1015.0 |
| 20260503212705 | 47 | 144 | 0.9 | 11.3 | 0.11 | 0.59 | 0.58 | 90 | 1015.0 |
| 20260503212205 | 48 | 35 | 3.5 | 13.9 | 0.10 | 0.58 | 0.57 | 90 | 1014.9 |
| 20260503211705 | 48 | 285 | 0.0 | 13.9 | 0.06 | 0.54 | 0.53 | 90 | 1015.5 |
| 20260503211205 | 48 | 228 | 6.1 | 5.2 | 0.01 | 0.54 | 0.48 | 91 | 1015.7 |
| 20260503210704 | 48 | 195 | 2.6 | 0.0 | 0.00 | 0.72 | 0.47 | 91 | 1015.1 |
| 20260503210205 | 48 | 261 | 0.0 | 0.0 | 0.00 | 0.82 | 0.47 | 91 | 1014.7 |
| 20260503205704 | 48 | 261 | 0.0 | 0.0 | 0.00 | 0.83 | 0.47 | 91 | 1014.4 |
| 20260503204704 | 49 | 261 | 0.0 | 0.0 | 0.00 | 0.85 | 0.47 | 90 | 1014.3 |
| 20260503204204 | 49 | 303 | 0.0 | 0.0 | 0.00 | 0.86 | 0.47 | 90 | 1014.3 |
| 20260503203705 | 49 | 302 | 0.0 | 0.0 | 0.00 | 0.87 | 0.47 | 90 | 1014.3 |
| 20260503203205 | 49 | 302 | 0.0 | 0.0 | 0.00 | 0.89 | 0.47 | 89 | 1014.3 |
| 20260503202705 | 49 | 302 | 0.0 | 0.9 | 0.00 | 0.90 | 0.47 | 89 | 1014.2 |
| 20260503202204 | 50 | 302 | 0.0 | 1.7 | 0.00 | 0.92 | 0.47 | 89 | 1014.2 |
| 20260503201704 | 50 | 302 | 0.0 | 2.6 | 0.00 | 0.93 | 0.47 | 89 | 1014.2 |
| 20260503200705 | 50 | 302 | 0.9 | 3.5 | 0.00 | 0.96 | 0.47 | 90 | 1014.0 |
| 20260503200222 | 50 | 306 | 1.7 | 3.5 | 0.00 | 0.98 | 0.47 | 90 | 1014.0 |
| 20260503195705 | 50 | 238 | 1.7 | 0.0 | 0.00 | 0.98 | 0.47 | 89 | 1014.0 |
| 20260503195205 | 50 | 245 | 0.0 | 0.0 | 0.00 | 0.98 | 0.47 | 89 | 1013.9 |
| 20260503194705 | 50 | 251 | 0.0 | 3.5 | 0.00 | 0.98 | 0.47 | 89 | 1013.9 |
| 20260503194204 | 51 | 251 | 0.0 | 3.5 | 0.00 | 0.98 | 0.47 | 88 | 1013.8 |
| 20260503193705 | 51 | 251 | 0.0 | 3.5 | 0.00 | 0.98 | 0.47 | 88 | 1013.6 |
| 20260503193205 | 51 | 243 | 1.7 | 2.6 | 0.00 | 0.98 | 0.47 | 88 | 1013.6 |
| 20260503192704 | 51 | 243 | 1.7 | 2.6 | 0.00 | 0.98 | 0.47 | 87 | 1013.5 |
| 20260503192205 | 52 | 244 | 1.7 | 4.3 | 0.00 | 0.98 | 0.47 | 86 | 1013.5 |
| 20260503191705 | 52 | 244 | 0.0 | 4.3 | 0.00 | 0.98 | 0.47 | 86 | 1013.5 |
| 20260503191205 | 52 | 244 | 1.7 | 4.3 | 0.00 | 0.99 | 0.47 | 85 | 1013.4 |
| 20260503190705 | 52 | 245 | 1.7 | 4.3 | 0.00 | 0.99 | 0.47 | 85 | 1013.4 |
| 20260503190205 | 52 | 254 | 1.7 | 4.3 | 0.00 | 0.99 | 0.47 | 85 | 1013.4 |
| 20260503185705 | 52 | 295 | 2.6 | 3.5 | 0.00 | 0.99 | 0.47 | 84 | 1013.2 |
| 20260503185204 | 53 | 247 | 0.0 | 5.2 | 0.00 | 0.99 | 0.47 | 84 | 1013.1 |
| 20260503183705 | 53 | 275 | 0.0 | 4.3 | 0.00 | 0.99 | 0.47 | 84 | 1013.0 |
| 20260503182204 | 54 | 303 | 0.9 | 6.1 | 0.00 | 1.06 | 0.47 | 84 | 1013.0 |
| 20260503181704 | 54 | 300 | 0.9 | 6.1 | 0.00 | 1.13 | 0.47 | 84 | 1013.0 |
| 20260503181204 | 54 | 300 | 1.7 | 6.1 | 0.00 | 1.13 | 0.47 | 84 | 1013.0 |
| 20260503180705 | 54 | 282 | 3.5 | 5.2 | 0.00 | 1.13 | 0.47 | 85 | 1012.8 |
| 20260503180204 | 54 | 302 | 1.7 | 5.2 | 0.00 | 1.13 | 0.47 | 86 | 1012.7 |
| 20260503175705 | 54 | 281 | 1.7 | 5.2 | 0.02 | 1.13 | 0.47 | 87 | 1012.6 |
| 20260503174705 | 55 | 316 | 2.6 | 2.6 | 0.02 | 1.13 | 0.47 | 88 | 1012.8 |
| 20260503174205 | 54 | 262 | 0.0 | 4.3 | 0.02 | 1.13 | 0.47 | 88 | 1012.4 |
| 20260503173705 | 54 | 261 | 0.0 | 9.6 | 0.02 | 1.13 | 0.47 | 88 | 1012.8 |
| 20260503173205 | 54 | 262 | 1.7 | 9.6 | 0.02 | 1.13 | 0.47 | 88 | 1012.7 |
| 20260503172705 | 54 | 221 | 1.7 | 9.6 | 0.02 | 1.13 | 0.47 | 88 | 1012.8 |
| 20260503172204 | 54 | 251 | 4.3 | 5.2 | 0.02 | 1.13 | 0.47 | 88 | 1012.7 |
| 20260503171705 | 54 | 209 | 1.7 | 5.2 | 0.02 | 1.13 | 0.47 | 87 | 1012.7 |
| 20260503171205 | 54 | 269 | 2.6 | 5.2 | 0.02 | 1.13 | 0.47 | 86 | 1012.7 |
| 20260503170705 | 54 | 295 | 3.5 | 7.8 | 0.02 | 1.13 | 0.47 | 85 | 1012.8 |
| 20260503160205 | 53 | 97 | 2.6 | 5.2 | 0.00 | 1.11 | 0.45 | 88 | 1012.8 |
| 20260503150705 | 51 | 189 | 3.5 | 8.7 | 0.11 | 1.11 | 0.45 | 87 | 1013.4 |
| 20260503140205 | 54 | 240 | 2.6 | 11.3 | 0.01 | 1.00 | 0.34 | 79 | 1014.0 |
| 20260503131205 | 55 | 293 | 2.6 | 9.6 | 0.00 | 0.99 | 0.33 | 82 | 1013.9 |
| 20260503130705 | 56 | 283 | 1.7 | 9.6 | 0.00 | 0.99 | 0.33 | 81 | 1013.9 |
| 20260503130205 | 56 | 271 | 1.7 | 9.6 | 0.00 | 0.99 | 0.33 | 81 | 1013.9 |
| 20260503120205 | 53 | 61 | 3.5 | 5.2 | 0.02 | 0.99 | 0.33 | 88 | 1014.9 |
| 20260503110704 | 50 | 3 | 0.9 | 6.1 | 0.28 | 0.98 | 0.32 | 89 | 1015.8 |
| 20260503110221 | 49 | 3 | 1.7 | 7.8 | 0.28 | 0.97 | 0.31 | 89 | 1015.7 |
| 20260503100204 | 51 | 97 | 1.7 | 7.8 | 0.01 | 0.67 | 0.01 | 87 | 1015.5 |
| 20260503090205 | 54 | 135 | 2.6 | 8.7 | 0.00 | 0.66 | 0.00 | 82 | 1015.4 |
| 20260503081205 | 52 | 96 | 0.9 | 10.4 | 0.00 | 0.66 | 0.00 | 88 | 1015.4 |
| 20260503080704 | 52 | 86 | 2.6 | 7.8 | 0.00 | 0.66 | 0.00 | 87 | 1015.4 |
| 20260503080205 | 52 | 142 | 3.5 | 7.8 | 0.00 | 0.66 | 0.00 | 88 | 1015.5 |
| 20260503072704 | 51 | 107 | 3.5 | 9.6 | 0.00 | 0.66 | 0.00 | 90 | 1015.5 |
| 20260503071704 | 51 | 96 | 5.2 | 7.8 | 0.00 | 0.66 | 0.00 | 90 | 1015.5 |
| 20260503071205 | 50 | 87 | 3.5 | 5.2 | 0.00 | 0.66 | 0.00 | 91 | 1015.5 |
| 20260503060205 | 48 | 63 | 1.7 | 5.2 | 0.00 | 0.66 | 0.00 | 92 | 1015.5 |
| 20260503054705 | 47 | 142 | 1.7 | 3.5 | 0.00 | 0.66 | 0.00 | 92 | 1015.6 |
| 20260503054205 | 47 | 130 | 1.7 | 3.5 | 0.00 | 0.66 | 0.00 | 92 | 1015.5 |
| 20260503053205 | 48 | 114 | 1.7 | 4.3 | 0.00 | 0.66 | 0.00 | 92 | 1015.5 |
| 20260503052704 | 48 | 114 | 1.7 | 4.3 | 0.00 | 0.66 | 0.00 | 92 | 1015.5 |
| 20260503052205 | 48 | 118 | 1.7 | 4.3 | 0.00 | 0.66 | 0.00 | 92 | 1015.5 |
| 20260503051705 | 47 | 110 | 2.6 | 3.5 | 0.00 | 0.66 | 0.00 | 92 | 1015.6 |
| 20260503050704 | 47 | 116 | 0.9 | 7.8 | 0.00 | 0.66 | 0.00 | 92 | 1015.4 |
| 20260503050204 | 47 | 157 | 1.7 | 7.8 | 0.00 | 0.66 | 0.00 | 92 | 1015.4 |
| 20260503045705 | 47 | 138 | 1.7 | 6.1 | 0.00 | 0.66 | 0.00 | 92 | 1015.4 |
| 20260503045205 | 47 | 162 | 0.9 | 6.1 | 0.00 | 0.66 | 0.00 | 92 | 1015.4 |
| 20260503044704 | 47 | 109 | 1.7 | 6.1 | 0.00 | 0.66 | 0.00 | 92 | 1015.5 |
| 20260503044204 | 47 | 145 | 1.7 | 9.6 | 0.00 | 0.66 | 0.00 | 92 | 1015.2 |
| 20260503043704 | 48 | 120 | 2.6 | 9.6 | 0.00 | 0.66 | 0.00 | 92 | 1015.2 |
| 20260503043205 | 48 | 144 | 1.7 | 9.6 | 0.00 | 0.66 | 0.00 | 92 | 1015.2 |
| 20260503042705 | 48 | 117 | 3.5 | 7.8 | 0.00 | 0.66 | 0.00 | 92 | 1015.4 |
| 20260503042205 | 48 | 121 | 1.7 | 7.8 | 0.00 | 0.66 | 0.00 | 92 | 1015.4 |
| 20260503041720 | 48 | 134 | 2.6 | 7.8 | 0.00 | 0.66 | 0.00 | 92 | 1015.5 |
| 20260503041205 | 48 | 134 | 3.5 | 4.3 | 0.00 | 0.66 | 0.00 | 93 | 1015.5 |
| 20260503040704 | 48 | 141 | 1.7 | 4.3 | 0.00 | 0.66 | 0.00 | 92 | 1015.4 |
| 20260503040205 | 48 | 125 | 2.6 | 6.1 | 0.00 | 0.66 | 0.00 | 93 | 1015.5 |
| 20260503035704 | 48 | 127 | 1.7 | 6.1 | 0.00 | 0.66 | 0.00 | 93 | 1015.7 |
| 20260503035204 | 48 | 186 | 2.6 | 6.1 | 0.00 | 0.66 | 0.00 | 93 | 1015.7 |
| 20260503034705 | 48 | 89 | 1.7 | 4.3 | 0.00 | 0.66 | 0.00 | 93 | 1015.7 |
| 20260503034205 | 48 | 85 | 1.7 | 5.2 | 0.00 | 0.66 | 0.00 | 93 | 1015.8 |
| 20260503033705 | 48 | 85 | 1.7 | 5.2 | 0.00 | 0.66 | 0.00 | 93 | 1015.8 |
| 20260503033205 | 48 | 148 | 1.7 | 5.2 | 0.00 | 0.66 | 0.00 | 93 | 1016.2 |
| 20260503032705 | 48 | 103 | 2.6 | 4.3 | 0.00 | 0.66 | 0.00 | 93 | 1016.2 |
| 20260503032205 | 48 | 75 | 2.6 | 4.3 | 0.00 | 0.66 | 0.00 | 93 | 1016.2 |
| 20260503031205 | 49 | 113 | 2.6 | 6.1 | 0.00 | 0.66 | 0.00 | 93 | 1016.0 |
| 20260503030705 | 49 | 142 | 2.6 | 6.1 | 0.00 | 0.66 | 0.00 | 93 | 1016.0 |
| 20260503030205 | 48 | 100 | 2.6 | 6.1 | 0.00 | 0.66 | 0.00 | 93 | 1016.2 |
| 20260503025204 | 48 | 144 | 2.6 | 3.5 | 0.00 | 0.66 | 0.00 | 93 | 1016.0 |
| 20260503024704 | 48 | 137 | 1.7 | 3.5 | 0.00 | 0.66 | 0.00 | 93 | 1015.9 |
| 20260503024205 | 48 | 138 | 0.9 | 3.5 | 0.00 | 0.66 | 0.00 | 93 | 1015.9 |
| 20260503023704 | 48 | 140 | 2.6 | 3.5 | 0.00 | 0.66 | 0.00 | 93 | 1016.0 |
| 20260503023204 | 48 | 140 | 0.9 | 3.5 | 0.00 | 0.66 | 0.00 | 93 | 1016.0 |
| 20260503022204 | 48 | 121 | 0.9 | 5.2 | 0.00 | 0.66 | 0.00 | 93 | 1016.0 |
| 20260503021705 | 48 | 76 | 0.0 | 5.2 | 0.00 | 0.66 | 0.00 | 93 | 1016.0 |
| 20260503021205 | 48 | 123 | 1.7 | 3.5 | 0.00 | 0.66 | 0.00 | 93 | 1016.2 |
| 20260503020204 | 49 | 162 | 0.0 | 5.2 | 0.00 | 0.66 | 0.00 | 93 | 1016.2 |
| 20260503014705 | 49 | 145 | 0.0 | 3.5 | 0.00 | 0.66 | 0.00 | 94 | 1016.3 |
| 20260503013704 | 49 | 102 | 1.7 | 3.5 | 0.00 | 0.66 | 0.00 | 94 | 1016.3 |
| 20260503013205 | 49 | 118 | 0.9 | 3.5 | 0.00 | 0.66 | 0.00 | 94 | 1016.3 |
| 20260503012704 | 49 | 83 | 1.7 | 4.3 | 0.00 | 0.66 | 0.00 | 94 | 1016.5 |
| 20260503012204 | 49 | 118 | 1.7 | 4.3 | 0.00 | 0.66 | 0.00 | 94 | 1016.5 |
| 20260503011705 | 49 | 162 | 1.7 | 5.2 | 0.00 | 0.66 | 0.00 | 94 | 1016.5 |
| 20260503011204 | 49 | 145 | 2.6 | 5.2 | 0.00 | 0.66 | 0.00 | 94 | 1016.5 |
| 20260503010704 | 49 | 159 | 3.5 | 3.5 | 0.00 | 0.66 | 0.00 | 94 | 1016.6 |
| 20260503010204 | 49 | 93 | 0.9 | 5.2 | 0.00 | 0.66 | 0.00 | 93 | 1016.6 |
| 20260503005705 | 49 | 93 | 0.9 | 5.2 | 0.00 | 0.66 | 0.00 | 94 | 1016.8 |
| 20260503005204 | 49 | 162 | 0.9 | 5.2 | 0.00 | 0.66 | 0.00 | 94 | 1016.8 |
| 20260503004704 | 49 | 155 | 1.7 | 5.2 | 0.00 | 0.66 | 0.00 | 94 | 1016.8 |
| 20260503004205 | 49 | 125 | 0.9 | 6.1 | 0.00 | 0.66 | 0.00 | 94 | 1016.8 |
| 20260503003705 | 49 | 125 | 3.5 | 6.1 | 0.00 | 0.66 | 0.00 | 94 | 1016.9 |
| 20260503003205 | 49 | 114 | 1.7 | 6.1 | 0.00 | 0.66 | 0.00 | 94 | 1016.9 |
| 20260503002704 | 49 | 161 | 2.6 | 6.1 | 0.00 | 0.66 | 0.00 | 94 | 1017.1 |